Wind_Speed
37 35 35 37 36 37 38 38 38 33 37 38 38 36 37 37 37 36 35 36 38 41 39 39 42 44 46 50 50 51 49 44 42 40 39 41 42 43 45 45 45 46 47 48
38 38 38 37 36 37 37 35 36 34 36 37 35 33 33 34 36 37 37 39 41 43 46 48 50 53 54 51 50 51 47 43 43 43 42 42 42 43 43 44 44 46 48 50
39 40 39 40 39 40 39 38 39 39 39 41 38 38 38 39 40 41 43 46 48 50 52 53 53 53 46 47 48 47 44 42 45 47 43 41 40 41 43 44 45 47 50 50
39 40 40 42 40 41 43 45 47 47 48 47 47 46 46 47 48 49 50 52 51 52 51 50 49 40 44 47 44 45 43 44 49 44 40 41 40 41 44 45 47 49 50 49
38 38 38 40 39 40 42 47 48 52 56 56 56 55 53 53 53 51 50 48 47 49 49 51 41 44 48 37 44 45 42 46 41 39 41 41 41 42 44 47 49 50 48 47
35 36 38 39 38 39 40 43 43 45 48 51 52 52 50 49 47 46 45 45 46 48 46 41 41 43 37 43 48 43 39 37 36 38 41 41 42 44 46 49 48 47 46 46
32 34 36 37 38 38 39 40 40 41 43 45 45 46 45 45 44 43 44 44 44 43 38 42 43 43 50 51 48 42 37 36 36 38 39 41 43 45 47 48 47 47 47 45
28 30 33 33 33 33 33 32 32 33 34 34 35 36 37 38 39 38 39 38 37 34 31 42 45 45 46 41 36 33 33 35 35 37 39 42 44 45 46 47 48 48 46 42
30 32 34 35 35 33 30 28 27 26 25 24 24 26 29 31 32 31 30 30 30 29 34 38 38 39 36 33 31 30 30 32 35 37 40 42 43 45 47 48 47 44 40 35
32 33 36 37 37 36 33 29 27 25 22 20 20 20 22 22 22 23 23 24 26 29 35 37 33 30 27 28 27 26 29 33 36 39 40 42 44 46 46 43 38 33 30 30
32 34 37 39 40 38 34 30 26 23 21 18 16 15 14 15 17 17 18 21 24 27 30 28 25 23 23 23 23 26 31 34 37 38 40 42 43 42 38 32 27 26 27 28
25 27 28 32 34 31 26 20 17 18 18 16 12 6 6 7 7 10 13 18 21 18 16 17 17 17 18 20 24 28 31 34 36 39 41 41 38 33 28 22 22 26 28 24
14 16 18 19 16 14 15 15 17 16 14 12 13 9 1 3 7 9 12 13 9 11 13 13 13 16 20 24 27 29 32 35 38 39 38 34 29 24 20 20 23 26 24 18
14 15 12 8 8 12 13 12 12 10 10 11 15 13 6 6 7 6 7 7 8 8 8 10 15 19 23 25 28 30 33 36 37 36 31 25 20 17 18 21 23 23 19 14
3 3 4 5 9 14 15 14 12 11 11 10 10 6 3 2 2 4 6 6 4 5 9 14 18 21 24 27 31 32 34 35 34 28 21 16 15 17 21 22 21 18 15 11
3 4 9 13 13 17 19 15 12 11 11 9 8 7 6 4 6 7 4 2 4 8 13 17 20 24 28 31 31 32 33 31 25 19 16 16 18 20 21 20 17 14 13 12
3 7 17 20 20 17 15 12 10 10 9 8 8 6 5 5 5 2 1 3 7 12 16 19 23 27 30 30 30 30 27 22 18 16 17 18 19 19 19 18 14 10 9 10
8 12 17 17 17 16 13 10 9 8 8 7 5 2 1 0 2 3 3 7 12 15 18 21 25 29 30 28 26 24 21 17 16 17 18 19 18 17 18 18 14 9 7 8
14 15 14 14 14 13 11 8 7 7 7 5 4 3 2 3 4 5 6 11 13 16 19 23 26 28 26 25 21 19 19 19 18 18 19 19 18 17 17 17 15 12 9 10
16 16 12 11 10 9 7 7 7 7 6 5 4 3 5 7 7 7 10 12 14 17 20 23 25 25 24 24 21 17 17 19 19 19 20 20 19 17 16 16 16 14 13 14
10 11 11 10 8 6 5 6 7 6 6 5 4 7 10 11 9 10 12 13 16 19 21 22 25 27 27 26 23 20 19 19 20 20 20 21 20 19 17 16 16 16 15 16
16 14 9 6 7 8 7 8 9 8 6 5 8 12 13 12 11 12 14 15 17 19 21 24 28 31 32 31 27 24 23 23 24 24 23 23 22 21 20 19 18 16 16 17
18 16 12 9 9 10 11 11 11 10 8 9 14 16 15 13 12 13 14 16 18 19 22 27 31 34 35 35 33 29 27 27 28 28 28 28 27 25 24 23 21 19 18 18
19 15 13 13 13 13 14 13 12 11 11 13 17 17 14 12 12 13 15 17 18 19 23 28 33 35 36 38 38 36 33 31 30 31 32 34 34 32 29 28 26 22 20 20
18 17 16 16 14 15 16 15 13 12 14 17 19 18 15 12 12 14 15 16 17 19 22 27 31 35 37 38 38 39 38 37 35 34 33 34 35 36 36 35 33 29 25 23
18 18 17 16 14 15 15 14 13 13 15 19 21 19 16 13 12 14 15 15 17 18 20 24 28 31 35 37 39 40 41 40 38 37 36 36 37 38 38 38 38 37 35 32
17 18 17 16 15 14 14 13 12 13 16 20 22 20 17 14 13 13 14 15 16 17 20 22 25 28 30 33 35 38 40 42 43 42 40 39 38 38 39 39 39 39 38 37
Wind_Direction
250 248 247 252 255 253 252 255 259 258 262 269 272 270 270 274 279 283 287 291 293 289 284 284 290 295 296 300 303 304 305 306 308 304 298 296 297 298 298 298 296 296 297 299
251 253 254 255 258 263 264 264 265 266 268 268 270 271 272 274 278 283 289 293 295 294 289 286 288 291 295 300 302 301 299 302 307 299 297 298 299 299 299 300 301 303 304 305
248 249 253 254 255 259 263 264 266 265 265 272 274 275 275 277 279 283 286 289 294 293 291 288 289 293 294 300 305 294 288 295 301 294 295 297 298 299 302 306 309 309 309 309
250 250 252 255 257 258 261 262 263 264 265 269 271 273 275 277 280 282 284 287 289 289 289 292 291 285 292 302 300 282 280 298 301 297 299 298 301 304 308 311 312 311 311 311
252 256 259 261 261 260 261 262 263 264 265 265 267 270 273 275 277 279 281 283 284 285 287 290 275 287 291 287 297 283 281 294 297 299 299 300 306 309 311 313 313 311 311 313
250 255 260 264 266 266 265 266 265 265 266 267 267 269 271 274 275 276 277 278 280 282 286 279 279 283 281 304 297 287 293 296 297 298 300 304 309 311 313 313 310 311 313 315
255 259 263 267 269 271 271 271 270 267 266 267 268 269 270 271 272 274 275 277 279 281 285 266 270 281 281 290 285 289 297 299 299 301 305 308 311 312 312 310 311 313 315 316
257 261 265 267 269 271 274 276 275 273 270 267 266 266 266 266 266 267 269 272 275 278 276 268 273 281 285 287 292 298 300 301 302 305 308 311 312 312 311 312 314 315 316 315
262 265 267 268 270 270 271 274 276 276 273 268 263 261 261 263 266 268 271 273 274 276 270 267 276 283 288 292 295 298 300 302 306 310 312 312 312 313 314 315 316 316 315 313
269 270 269 268 268 268 270 271 270 267 262 257 257 258 261 265 268 271 272 270 266 265 267 274 276 280 287 291 295 303 307 309 311 313 312 313 314 316 318 319 319 318 317 318
271 270 270 270 269 269 269 267 264 258 250 244 251 256 263 271 271 266 264 269 272 273 275 273 277 286 290 296 306 310 312 313 313 313 314 316 318 320 323 324 324 325 327 327
274 275 274 272 268 263 257 254 247 239 230 229 235 248 263 264 266 268 273 280 272 269 279 287 289 294 304 313 316 318 317 316 316 317 319 321 323 324 327 331 336 335 332 330
274 278 280 278 264 229 213 221 221 215 212 200 203 210 262 304 289 272 278 277 275 287 288 292 305 317 321 324 323 322 321 321 321 323 324 325 328 334 340 343 343 341 339 342
281 274 265 248 220 210 210 204 192 180 175 188 218 228 256 291 292 285 288 305 297 286 301 321 328 328 329 328 327 327 327 326 327 328 331 335 342 349 349 344 345 349 353 358
323 227 212 212 200 196 184 161 152 145 147 169 187 191 201 221 263 301 299 292 298 331 339 337 336 335 335 334 334 332 330 330 333 338 345 354 355 351 347 344 346 355 3 12
82 86 106 107 118 154 161 161 151 147 154 164 178 189 197 229 270 281 283 312 2 357 349 347 345 345 343 340 336 334 334 338 345 357 6 2 356 351 348 347 349 359 8 14
187 140 108 96 93 114 137 143 144 147 162 183 195 206 234 267 273 254 113 40 13 3 358 355 351 349 345 342 341 341 343 352 5 12 7 0 354 353 354 355 354 358 7 18
147 115 98 92 90 98 111 126 141 153 170 185 187 192 319 329 150 129 81 30 18 10 4 358 354 350 348 349 347 351 358 7 10 7 2 358 357 0 3 7 11 16 20 25
141 123 108 98 89 83 85 101 122 138 147 148 127 85 77 121 132 110 59 33 20 12 7 3 358 354 355 357 357 3 14 17 15 10 7 6 9 12 15 21 29 42 44 44
154 147 134 119 105 93 92 109 132 141 134 124 112 103 120 128 120 85 54 35 27 20 17 12 4 6 9 10 11 14 19 20 19 17 17 18 21 24 28 35 41 49 60 59
188 183 163 148 139 126 122 142 164 160 142 128 121 126 131 125 102 73 53 43 36 30 28 22 21 23 23 23 25 30 30 27 25 25 27 28 31 35 37 43 48 59 68 63
201 211 208 186 176 165 162 164 170 168 153 132 130 133 130 115 91 70 58 51 45 43 40 37 36 36 36 36 39 42 42 41 40 40 38 38 40 43 44 48 53 62 69 68
215 219 223 213 194 178 174 172 170 161 144 130 136 137 130 113 92 75 65 58 54 54 52 48 45 43 44 45 46 48 50 50 49 49 47 47 48 50 50 53 58 63 67 69
220 222 221 211 194 177 176 175 169 156 141 134 138 136 128 114 99 84 73 65 63 63 60 56 52 50 50 51 51 52 53 53 54 55 54 54 54 55 55 57 60 65 69 69
211 211 213 206 188 172 173 172 164 156 143 137 140 139 131 122 108 92 79 72 71 71 68 63 59 57 57 57 55 54 54 55 56 57 58 58 58 58 58 59 62 66 69 70
198 197 198 193 181 171 169 167 162 155 150 147 148 147 139 132 118 99 86 79 78 79 76 70 65 63 63 63 61 60 58 58 58 59 61 61 61 61 62 63 64 66 68 69
184 183 183 179 177 176 171 169 167 162 161 157 154 152 145 139 128 109 95 87 85 86 82 76 72 69 67 67 66 65 65 64 63 63 64 64 64 64 64 65 66 67 67 68
Height
5744 5747 5749 5750 5751 5753 5755 5757 5757 5760 5756 5757 5756 5757 5757 5757 5757 5757 5757 5755 5752 5749 5746 5743 5739 5736 5732 5727 5722 5718 5714 5710 5706 5700 5695 5689 5684 5678 5672 5666 5660 5654 5646 5638
5735 5736 5739 5742 5744 5744 5745 5747 5747 5749 5749 5747 5748 5748 5748 5748 5748 5748 5747 5745 5742 5739 5735 5731 5728 5725 5721 5716 5712 5707 5703 5699 5694 5689 5684 5679 5673 5668 5662 5655 5648 5640 5633 5625
5725 5726 5728 5732 5735 5735 5736 5738 5738 5739 5738 5736 5739 5739 5739 5738 5738 5737 5736 5733 5730 5725 5722 5719 5717 5712 5709 5705 5700 5695 5691 5687 5682 5678 5673 5668 5662 5656 5650 5644 5636 5628 5620 5613
5714 5717 5720 5722 5723 5726 5727 5726 5726 5727 5726 5728 5727 5727 5728 5728 5727 5726 5724 5722 5719 5714 5710 5708 5704 5701 5698 5694 5690 5686 5682 5675 5672 5667 5663 5658 5651 5644 5638 5631 5623 5616 5608 5600
5705 5706 5710 5710 5712 5714 5715 5713 5715 5715 5714 5714 5715 5715 5716 5716 5714 5714 5712 5710 5707 5703 5699 5696 5694 5690 5687 5682 5679 5675 5669 5666 5661 5657 5653 5646 5639 5632 5625 5618 5611 5605 5597 5589
5696 5698 5698 5700 5701 5701 5703 5702 5703 5703 5702 5701 5702 5703 5704 5703 5702 5701 5700 5698 5696 5692 5690 5688 5686 5683 5678 5673 5670 5665 5659 5655 5651 5647 5642 5636 5629 5622 5614 5607 5601 5594 5587 5579
5686 5687 5688 5690 5690 5690 5691 5690 5691 5690 5690 5690 5690 5691 5691 5691 5690 5689 5688 5687 5685 5683 5682 5682 5677 5674 5670 5667 5662 5654 5650 5647 5642 5638 5633 5626 5619 5611 5604 5598 5591 5584 5578 5570
5677 5678 5680 5680 5679 5680 5679 5678 5677 5677 5677 5678 5678 5679 5679 5679 5678 5678 5677 5677 5676 5675 5674 5673 5667 5664 5660 5656 5651 5645 5642 5639 5635 5630 5624 5616 5609 5602 5595 5588 5580 5573 5566 5560
5668 5670 5669 5668 5669 5669 5670 5669 5668 5668 5668 5668 5669 5669 5669 5669 5669 5669 5669 5669 5668 5667 5665 5662 5660 5657 5652 5648 5644 5640 5637 5633 5628 5621 5614 5607 5600 5593 5586 5578 5570 5562 5555 5550
5657 5658 5657 5657 5658 5659 5660 5661 5661 5661 5661 5662 5662 5663 5663 5663 5663 5663 5662 5661 5660 5660 5658 5655 5653 5649 5644 5642 5639 5635 5631 5625 5619 5612 5605 5598 5590 5584 5576 5567 5559 5552 5547 5541
5647 5647 5646 5646 5647 5648 5650 5651 5652 5653 5655 5657 5657 5658 5658 5658 5657 5657 5656 5655 5654 5653 5651 5650 5646 5643 5641 5637 5633 5629 5623 5617 5611 5604 5597 5590 5582 5574 5566 5559 5552 5546 5540 5534
5638 5637 5637 5635 5634 5637 5640 5642 5644 5646 5648 5651 5653 5655 5654 5654 5653 5653 5652 5651 5649 5648 5646 5644 5642 5639 5636 5632 5627 5622 5616 5610 5603 5596 5588 5581 5574 5567 5560 5554 5548 5542 5536 5530
5631 5630 5628 5626 5626 5628 5632 5635 5637 5640 5644 5647 5650 5651 5651 5651 5651 5651 5649 5648 5646 5645 5643 5641 5639 5636 5632 5627 5622 5616 5610 5603 5596 5587 5580 5573 5567 5561 5555 5550 5545 5539 5533 5528
5625 5624 5623 5623 5624 5626 5629 5632 5635 5638 5641 5644 5647 5649 5650 5649 5649 5649 5648 5647 5645 5643 5641 5639 5636 5632 5628 5622 5617 5610 5603 5596 5588 5580 5573 5567 5562 5557 5553 5548 5543 5537 5532 5528
5621 5621 5621 5622 5623 5625 5629 5633 5636 5638 5641 5644 5647 5648 5648 5648 5648 5648 5647 5645 5644 5642 5640 5637 5634 5629 5624 5618 5611 5604 5597 5590 5582 5574 5569 5564 5560 5556 5551 5546 5541 5537 5532 5529
5623 5623 5624 5624 5625 5627 5631 5634 5637 5640 5643 5645 5646 5647 5648 5648 5648 5647 5646 5645 5643 5642 5639 5635 5631 5625 5619 5613 5606 5599 5591 5584 5577 5572 5567 5563 5559 5554 5549 5544 5540 5536 5533 5530
5627 5629 5629 5630 5631 5633 5635 5637 5639 5640 5643 5644 5645 5647 5648 5648 5648 5647 5646 5645 5644 5641 5637 5633 5628 5623 5616 5609 5602 5594 5588 5581 5575 5571 5567 5562 5557 5552 5548 5543 5539 5536 5534 5531
5631 5632 5632 5633 5635 5637 5638 5640 5641 5642 5644 5646 5647 5648 5649 5648 5648 5648 5648 5646 5644 5641 5637 5632 5627 5621 5613 5606 5599 5592 5585 5580 5575 5571 5566 5561 5556 5552 5547 5543 5539 5536 5534 5532
5634 5635 5637 5638 5638 5639 5640 5642 5643 5644 5646 5647 5648 5649 5649 5649 5650 5650 5649 5647 5645 5642 5638 5632 5626 5620 5613 5605 5597 5592 5586 5580 5576 5571 5567 5562 5557 5552 5548 5544 5540 5537 5535 5533
5636 5638 5639 5640 5641 5642 5643 5644 5645 5646 5647 5649 5649 5649 5649 5651 5652 5652 5650 5648 5646 5643 5638 5633 5627 5620 5612 5605 5597 5592 5587 5583 5578 5573 5568 5563 5559 5554 5550 5546 5543 5540 5537 5536
5638 5639 5641 5642 5643 5644 5645 5646 5647 5648 5649 5650 5650 5650 5651 5652 5654 5654 5652 5650 5648 5644 5640 5635 5629 5621 5614 5606 5599 5594 5589 5585 5580 5576 5571 5566 5561 5557 5553 5549 5546 5543 5541 5540
5637 5639 5641 5643 5644 5645 5646 5647 5649 5650 5651 5651 5650 5651 5653 5655 5656 5656 5654 5653 5651 5647 5644 5639 5632 5625 5617 5610 5603 5597 5593 5589 5584 5580 5575 5570 5565 5560 5556 5553 5550 5547 5546 5544
5635 5638 5640 5642 5644 5645 5647 5648 5649 5650 5651 5651 5651 5654 5656 5658 5658 5658 5657 5656 5654 5651 5648 5643 5636 5630 5623 5616 5609 5603 5599 5594 5590 5585 5580 5575 5570 5566 5562 5558 5555 5552 5550 5548
5633 5636 5638 5640 5642 5644 5647 5648 5649 5650 5650 5651 5653 5656 5658 5660 5660 5661 5660 5659 5657 5655 5652 5648 5642 5636 5631 5624 5618 5612 5606 5602 5597 5592 5588 5583 5578 5573 5569 5565 5561 5558 5557 5555
5630 5634 5636 5638 5640 5642 5645 5647 5649 5651 5651 5652 5655 5658 5661 5663 5663 5663 5663 5663 5661 5660 5657 5653 5648 5644 5639 5633 5628 5622 5616 5611 5606 5601 5597 5592 5588 5583 5578 5573 5569 5566 5564 5562
5628 5632 5634 5636 5639 5642 5644 5647 5649 5650 5651 5653 5657 5661 5663 5665 5665 5666 5667 5666 5665 5663 5661 5658 5655 5651 5646 5642 5637 5632 5627 5622 5617 5612 5607 5603 5599 5594 5589 5585 5581 5577 5574 5571
5625 5629 5633 5636 5638 5641 5643 5646 5648 5650 5653 5655 5659 5662 5665 5667 5668 5669 5669 5669 5669 5668 5666 5664 5661 5658 5654 5650 5647 5643 5639 5634 5629 5624 5619 5615 5610 5606 5602 5597 5593 5589 5586 5582